FW6085 Weather Reports


time (UTC)temp
F
wind
direction
speed
knots
gust
knots
rain 1hr
in
rain 24hr
in
rain mn
in
humidity
%
barometer
mb
20260506134554 44 255 0.0 6.1 0.08 0.47 0.44 95 1006.6
20260506133101 44 0 0.0 4.3 0.10 0.46 0.43 95 1006.9
20260506131550 44 0 0.0 2.6 0.14 0.45 0.42 95 1006.8
20260506130053 44 228 0.0 1.7 0.15 0.43 0.40 95 1006.7
20260506124552 45 0 0.0 2.6 0.13 0.39 0.36 95 1006.8
20260506123056 45 225 0.9 6.1 0.11 0.36 0.33 95 1006.6
20260506121559 45 220 0.9 4.3 0.08 0.31 0.28 95 1006.4
20260506120051 45 243 0.0 4.3 0.08 0.28 0.25 94 1006.3
20260506114607 47 0 0.0 4.3 0.08 0.26 0.23 95 1006.2
20260506113057 47 219 0.9 2.6 0.09 0.25 0.22 95 1006.2
20260506111600 47 214 0.0 0.9 0.08 0.23 0.20 95 1006.1
20260506104557 46 0 0.0 0.9 0.07 0.17 0.14 95 1006.2
20260506103057 46 214 0.0 2.6 0.08 0.16 0.13 94 1006.3
20260506101552 46 165 0.0 0.9 0.09 0.15 0.12 94 1006.7
20260506100053 46 0 0.0 0.9 0.08 0.13 0.10 94 1006.5
20260506094611 46 245 0.0 2.6 0.06 0.13 0.07 94 1006.8
20260506093055 46 238 0.0 3.5 0.04 0.11 0.05 94 1006.5
20260506091553 46 238 1.7 5.2 0.03 0.09 0.03 93 1007.1
20260506090052 46 236 1.7 5.2 0.02 0.08 0.02 93 1007.5
20260506084556 47 216 0.0 2.6 0.01 0.07 0.01 93 1007.2
20260506083057 47 0 0.0 1.7 0.01 0.07 0.01 93 1006.9
20260506081552 47 0 0.0 3.5 0.00 0.06 0.00 93 1006.6
20260506080106 46 0 0.0 1.7 0.00 0.06 0.00 93 1006.8
20260506073109 46 0 0.0 2.6 0.00 0.06 0.00 93 1006.9
20260506071553 46 0 0.0 0.0 0.00 0.06 0.00 93 1007.1
20260506061611 46 0 0.0 1.7 0.00 0.06 0.00 92 1008.4
20260506044554 46 0 0.0 0.9 0.00 0.06 0.00 91 1009.1
20260506043102 46 0 0.0 2.6 0.00 0.06 0.00 91 1009.4
20260506041556 46 247 0.0 1.7 0.00 0.06 0.00 90 1009.3
20260506040056 46 247 0.0 2.6 0.00 0.06 0.00 89 1009.0
20260506034558 47 0 0.0 2.6 0.00 0.06 0.06 89 1009.4
20260506033114 47 0 0.0 0.0 0.00 0.06 0.06 88 1009.4
20260506031553 47 0 0.0 1.7 0.00 0.06 0.06 88 1009.7
20260506030100 48 247 0.0 3.5 0.00 0.06 0.06 87 1009.7
20260506024608 49 235 0.0 1.7 0.00 0.06 0.06 86 1009.7
20260506023102 49 235 0.0 1.7 0.00 0.06 0.06 85 1009.8
20260506021557 49 261 0.0 3.5 0.00 0.06 0.06 85 1009.9
20260506020052 50 0 0.9 7.0 0.00 0.06 0.06 84 1009.7
20260506014553 50 214 2.6 9.6 0.00 0.06 0.06 84 1009.4
20260506013101 51 227 1.7 6.1 0.00 0.06 0.06 83 1009.3
20260506011610 52 234 1.7 5.2 0.00 0.06 0.06 83 1009.0
20260506010059 52 224 1.7 7.0 0.00 0.06 0.06 82 1008.9
20260506004557 53 236 3.5 13.0 0.00 0.06 0.06 80 1008.7
20260506003057 55 237 1.7 7.0 0.00 0.06 0.06 81 1009.0
20260506001558 58 210 2.6 8.7 0.00 0.06 0.06 85 1009.0
20260505234554 59 220 1.7 6.1 0.00 0.06 0.06 86 1007.7
20260505233056 60 229 1.7 7.8 0.00 0.06 0.06 84 1007.3
20260505231555 62 236 1.7 6.1 0.00 0.06 0.06 79 1007.4
20260505224605 63 214 0.9 5.2 0.00 0.06 0.06 75 1006.5
20260505223109 65 178 3.5 7.8 0.00 0.06 0.06 69 1006.3
20260505221602 65 0 0.0 5.2 0.00 0.06 0.06 71 1006.0
20260505220103 66 247 1.7 7.0 0.00 0.06 0.06 71 1005.7
20260505214553 68 199 0.9 11.3 0.00 0.06 0.06 67 1005.7
20260505213051 69 143 2.6 7.0 0.00 0.06 0.06 67 1005.6
20260505211551 69 174 2.6 7.8 0.00 0.06 0.06 66 1005.3
20260505210054 68 155 1.7 7.8 0.00 0.06 0.06 69 1005.2
20260505204601 67 138 3.5 8.7 0.00 0.06 0.06 71 1005.5
20260505203107 66 143 1.7 7.0 0.01 0.06 0.06 74 1005.5
20260505201555 65 135 2.6 7.0 0.02 0.06 0.06 79 1005.8
20260505200054 62 132 2.6 7.8 0.03 0.06 0.06 83 1006.2
20260505194600 62 148 2.6 10.4 0.03 0.06 0.06 83 1006.6
20260505193051 62 148 1.7 7.0 0.02 0.05 0.05 82 1006.8
20260505191550 65 138 2.6 7.0 0.01 0.04 0.04 75 1006.6
20260505190048 67 150 0.9 4.3 0.00 0.03 0.03 69 1006.0
20260505184553 67 201 0.9 5.2 0.00 0.03 0.03 67 1005.7
20260505183053 70 187 2.6 7.8 0.00 0.03 0.03 55 1005.1
20260505181549 73 136 3.5 13.0 0.00 0.03 0.03 47 1004.8
20260505180051 73 148 3.5 13.0 0.00 0.03 0.03 47 1004.8
20260505174549 73 0 2.6 8.7 0.00 0.03 0.03 50 1005.1
20260505173053 73 147 3.5 10.4 0.00 0.03 0.03 48 1005.3
20260505171550 71 241 1.7 6.1 0.00 0.03 0.03 50 1005.8
20260505170050 72 146 2.6 12.2 0.00 0.03 0.03 49 1005.6
20260505164600 72 143 4.3 11.3 0.00 0.03 0.03 48 1005.7
20260505163053 73 131 3.5 14.8 0.00 0.03 0.03 49 1005.1
20260505161556 73 131 2.6 13.9 0.00 0.03 0.03 48 1005.2
20260505153106 75 140 3.5 9.6 0.00 0.03 0.03 47 1005.7
20260505151553 74 145 2.6 15.6 0.00 0.03 0.03 49 1005.5